Regional Weather Roundup
Issued by NWS Wakefield, VA

Home | Current Version | Previous Version | Graphics & Text | Print | Product List | Glossary On
Versions: 1 2 3 4 5 6 7 8 9 10 11 12 13 14 15 16 17 18 19 20 21 22 23 24 25 26 27
000
ASUS41 KAKQ 310115
RWRAKQ

REGIONAL WEATHER ROUNDUP
NATIONAL WEATHER SERVICE WAKEFIELD VA
900 PM EDT MON MAY 30 2016

Note: "fair" indicates few or no clouds below 12,000 feet with no
significant weather and/or obstructions to visibility. * = Denotes
station may not report precipitation (e.g., rain,snow,etc.),
thunder or fog.

VAZ042-051-052>054-056-310200-
NORTHERN VIRGINIA

CITY           SKY/WX    TMP DP  RH WIND       PRES   REMARKS
WASH NATIONAL  MOCLDY    74  70  87 S12       29.97R
DULLES         MOCLDY    74  68  81 S6        29.97R
FORT BELVOIR   MOCLDY    73  69  89 SE5       29.97R
QUANTICO       FAIR      73  68  84 S16       29.98R
FREDERICKSBRG* FAIR      71  67  86 S9        29.97S
STAFFORD*      FAIR      71  65  81 S7        30.02R
WARRENTON      FAIR      74  66  75 SE3       29.97R
CULPEPER*      FAIR      74  70  87 CALM      29.98R
MANASSAS*      CLEAR     73  72  94 SE7       29.96S
LEESBURG*      FAIR      77  72  83 S10       29.97S
WINCHESTER     MOCLDY    70  63  78 CALM      29.97S
FRONT ROYAL*   CLOUDY    68  66  94 CALM      29.96S
LURAY*         MOCLDY    73  68  83 N7        29.98R
$$

VAZ048-049-060>072-079>083-310200-
CENTRAL AND SOUTH CENTRAL VIRGINIA

CITY           SKY/WX    TMP DP  RH WIND       PRES   REMARKS
RICHMOND       CLOUDY    69  68  96 E3        29.98R
CHESTERFIELD*  FAIR      70  57  64 SE3       29.99R
PETERSBURG*    FAIR      70  70 100 NW3       29.98S
HANOVER        FAIR      70  67  90 VRB3      29.99R
TAPPAHANNOCK*  FAIR      70  70 100 CALM      29.99R
QUINTON*       CLOUDY    69  69 100 E3        29.97R
CHARLOTTSVILLE FAIR      75  68  78 S6        29.96S
GORDONSVILLE*  FAIR      73  71  93 SE5       29.97S
ORANGE*        FAIR      73  73 100 NE3       29.99R
LOUISA*        FAIR      75  72  88 CALM      29.97R
BUMPASS*       MOCLDY    72  70  94 CALM      29.99R
FARMVILLE*     FAIR      74  72  91 SE3       29.97R
CREWE*         FAIR      70  70 100 CALM      29.98R
FORT PICKETT*  NOT AVBL
CHASE CITY*    FAIR      72  71  95 CALM      29.98R
CLARKSVILLE*   FAIR      72  72 100 NE3       29.97R
SOUTH HILL*    MOCLDY    70  69  96 CALM      30.02F
LAWRENCEVILLE* FAIR      70  70  99 SE3       29.96F
EMPORIA*       CLOUDY    70  68  94 CALM      29.98S
$$

VAZ088>098-310200-
SOUTHEAST VIRGINIA

CITY           SKY/WX    TMP DP  RH WIND       PRES   REMARKS
NORFOLK        CLOUDY    70  68  93 S5        29.96F
VIRGINIA BEACH LGT RAIN  74  68  81 S7        29.96F FOG
NORFOLK NAVAL  LGT RAIN  70  69  97 SE3       29.98S
WEST POINT*    FAIR      68  67  96 CALM      30.00R
SALUDA*        FAIR      67  67  99 CALM      29.98S
NEWPORT NEWS   LGT RAIN  69  68  96 E5        29.97S FOG
LANGLEY AFB    MOCLDY    69  69  99 E7        29.97S
FORT EUSTIS    MOCLDY    70  55  58 E7        29.95S
WILLIAMSBURG*  MOCLDY    70  70 100 CALM      29.98S
HR EXEC AP*    CLOUDY    72  68  88 E5        29.99S
FRANKLIN*      FAIR      69  68  96 E3        29.97S
US460-WAKEFLD  FAIR      70  68  93 CALM      29.96S
$$

VAZ020-022-025-037-045-310200-
WEST CENTRAL AND SOUTHWEST VIRGINIA

CITY           SKY/WX    TMP DP  RH WIND       PRES   REMARKS
STAUNTON*      MOCLDY    71  65  80 CALM      30.00R
WAYNESBORO*    FAIR      73  65  75 S3        30.00S
HOT SPRINGS VA CLOUDY    65  58  76 CALM      30.10S
LYNCHBURG      FAIR      73  69  87 CALM      29.99R
DANVILLE       FAIR      75  67  76 E3        29.97R
SOUTH BOSTON*  FAIR      73  71  95 E3        29.97R
MARTINSVILLE   MOCLDY    69  66  89 CALM      29.99S
ROANOKE        TSTM      74  63  68 N7        30.01R
BLACKSBURG     DRIZZLE   70  64  83 E5        30.06S
DUBLIN*        FAIR      73  63  70 E3        30.04S
MARION*        FAIR      67  63  85 CALM      30.08S
HILLSVILLE*    CLOUDY    66  62  87 CALM      30.05S
RICHLANDS*     FAIR      71  47  42 NW3       30.06S
WISE*          FAIR      70  54  56 NE3       30.08S
ABINGDON*      MOCLDY    75  63  64 CALM      30.03R
$$

MDZ021>025-VAZ099-100-310200-
SOUTHERN MARYLAND AND THE DELMARVA PENINSULA

CITY           SKY/WX    TMP DP  RH WIND       PRES   REMARKS
PATUXENT RIVER CLOUDY    68  66  93 S5        29.98R
BAY BRIDGE APT CLOUDY    72  68  88 S7        29.98R
LEONARDTOWN    CLOUDY    68  64  88 CALM      30.00R
DOVER          CLOUDY    71  71 100 S3        29.97S
GEORGETOWN     LGT RAIN  69  67  93 S3        29.99S
EASTON         MOCLDY    70  70 100 S5        30.01R
CAMBRIDGE        N/A     68  66  94 SE6       29.97S
SALISBURY      LGT RAIN  68  67  96 CALM      29.99R
OCEAN CITY     LGT RAIN  68  66  93 CALM      29.98S
WALLOPS ISLAND LGT RAIN  67  65  93 E3        29.98F FOG
ACCOMACK*      DRIZZLE   68  63  83 CALM      29.98S
$$

NCZ012>017-030>032-310200-
NORTH CENTRAL AND EASTERN NORTH CAROLINA

CITY           SKY/WX    TMP DP  RH WIND       PRES   REMARKS
ROANOKE RAPIDS LGT RAIN  70  70 100 CALM      29.96S
RALEIGH        MOCLDY    74  71  91 E6        29.95R
ELIZABETH CITY CLOUDY    71  70  96 CALM      29.97F
AHOSKIE*       CLOUDY    72  70  94 SE3       29.97R
EDENTON*       CLOUDY   N/A N/A N/A E7        29.96F
CURRITUCK*     CLOUDY    71  71 100 CALM      29.98F
KILL DEVIL HLS LGT RAIN  70  69  97 CALM      29.96R
MANTEO         NOT AVBL
CAPE HATTERAS  CLOUDY    73  71  93 SE3       29.94F
TARBORO*       CLOUDY    73  70  89 CALM      29.97F
GOLDSBORO      NOT AVBL
WASHINGTON     PTCLDY    72  69  93 E3        29.95S
GREENVILLE     CLOUDY    73  72  94 CALM      29.97S
NEW BERN       PTCLDY    74  70  87 E3        29.95S
WILMINGTON     CLOUDY    74  72  93 E3        29.91S
$$

VAZ048-310200-
ELSEWHERE

CITY           SKY/WX    TMP DP  RH WIND       PRES   REMARKS
HARRISBURG PA  MOCLDY    70  66  87 CALM      29.97R
BALTIMORE      CLOUDY    72  69  90 CALM      29.96S
ANNAPOLIS      CLOUDY    70  69  97 S7        29.97S
ANDREWS AFB    MOCLDY    71  69  94 S7        29.97R
PHILADELPHIA   CLOUDY    73  68  84 S8        29.98R
HENDERSON NC   MOCLDY    71  66  84 E7        29.97S
GREENSBORO     MOCLDY    76  65  68 E8        29.96R
ROCKY MOUNT    CLOUDY    73  70  90 CALM      29.95F
$$

VAZ100-310200-
MARINE

STATION/POSITION TIME  TEMP    WIND        PRES    WAVE   SWELL
                       AIR SEA DIR/SP/G            HT/PER HT/PER
                 (UTC) (F)     (DEG/KT/KT) (MB)    (FT/S) (FT/S)
BRANDYWINE LGT   0000   65                   N/A
CAPE MAY NJ      0000   67 68                N/A
LEWES DE         0000   69 64                N/A
15NM E FENWICK I 0050   66 64              1015.2F   4/ 7
OCEAN-CITY-INLET 0000   63 58                N/A
WACHAPREAGUE VA  0000   68 76                N/A
THOMAS POINT MD  0100   69 69  180/ 15/ 17 1016.3R
GOOSES REEF MD   0100   69 69  190/ 10/ 12 1016.1R   1/ 3
COVE POINT MD    0000   68                   N/A
SOLOMONS ISLAND  0000   69 68                N/A
BISHOPS HEAD MD  0000   70 74                N/A
POTOMAC MD       0100   69 71  190/  8/ 10 1014.5R   1
CAMBRIDGE MD     0000   69 69                N/A
LEWISETTA VA     0000   70 71                N/A
RAPPAHANNOCK LGT 0000                      1015.5F
STINGRAY PT      0100   70 70  150/  6/  8 1015.9R   1
YORK RVR RNG VA  0000   70                   N/A
YORKTOWN VA      0000   70 70                N/A
JAMESTOWN VA     0100   71 76   80/  4/  6   N/A
DOMINION TERM VA 0000   70                   N/A
KIPTOPEKE VA     0000      69                N/A
CHES BAY BRIDGE  0000   68 64                N/A
CAPE HENRY VA    0000   69                   N/A
CHESAPEAKE LGHT  0000   69     170/ 10/ 11 1016.1R
WILLOUBY STN VA  0000   69                   N/A
CAPE HENRY BUOY  0012      69                N/A     4/ 8
1ST LANDING BUOY 0100   69 68  120/ 10/ 14 1014.8F   2/ 4
CAPE CHARLES BUO 0026      70                N/A     3/ 7   3/ 7
OFFSHORE WE BUOY 0021      70                N/A     5/ 8   5/ 8
64NM E OF VA BCH 0050   66 63   50/  4/  6 1015.3F   6/ 7   7/ 7
DUCK PIER NC     0000   66 59                N/A
44100 DUCK FRF   0024      67                N/A     5/ 7
44056 DUCK FRF   0011      62                N/A     4/ 8
OREGON INLET NC  0000   69 75                N/A
HATTERAS NC      0000   74 74                N/A
DIAMOND SHLS NC  0050   75 81  210/  6/  8 1013.7R   5/ 7   5/ 7
CAPE LOOKOUT NC  0100   74      70/  4/  4 1013.2F
$$




USA.gov is the U.S. government's official web portal to all federal, state and local government web resources and services.